Regional Weather Roundup
Issued by NWS

Home | Current Version | Previous Version | Text Only | Print | Product List | Glossary Off
Versions: 1 2 3 4 5 6 7 8 9 10 11 12 13 14 15 16 17 18 19 20 21 22 23 24 25 26 27

000
ASUS45 KTFX 301210
RWRMT
MONTANA REGIONAL WEATHER ROUNDUP
NATIONAL WEATHER SERVICE GREAT FALLS MT
600 AM MDT SAT APR 30 2016

NOTE: "FAIR" INDICATES FEW OR NO CLOUDS BELOW 12000 FEET WITH NO
SIGNIFICANT WEATHER AND/OR OBSTRUCTIONS TO VISIBILITY.

MTZ001>007-043-301300-
WEST OF THE DIVIDE

CITY           SKY/WX    TMP DP  RH WIND       PRES   REMARKS
KALISPELL      PTCLDY    36  36 100 CALM      30.13R
MISSOULA       LGT RAIN  41  38  89 NW3       30.13R
BUTTE          CLOUDY    37  34  89 CALM      30.06R
MULLAN PASS    CLOUDY    32  31  96 CALM      30.09R
ANACONDA         N/A     37  36  93 N3        30.07S
DEER LODGE       N/A     37  36  93 NE5       30.09S
EUREKA           N/A     39  37  93 CALM      30.15R
HAMILTON         N/A     41  37  87 NW5       30.11R
LIBBY            N/A     37  37 100 CALM      30.15R
PLAINS           N/A     44  40  86 CALM      30.13
$$

MTZ008-052>055-301300-
SOUTHWEST MONTANA

CITY           SKY/WX    TMP DP  RH WIND       PRES   REMARKS
BOZEMAN        CLOUDY    33  29  85 CALM      30.06R
DILLON         CLOUDY    39  32  76 NE9       30.02R
ENNIS          CLOUDY    37  32  81 N8        30.07R WCI  31
THREE FORKS      N/A     37  37 100 CALM      30.05R
TWIN BRIDGES     N/A     39  29  68 N15       30.00R WCI  30
$$

MTZ009-010-012-014-046-048-049-054-301300-
EAST SLOPES AND CENTRAL MONTANA

CITY           SKY/WX    TMP DP  RH WIND       PRES   REMARKS
CUT BANK       CLOUDY    33  32  96 NW8       30.14R WCI  26
GREAT FALLS    CLOUDY    36  34  92 W6        30.10R WCI  31
HELENA         CLOUDY    42  34  73 W5        30.07R
CHOTEAU          N/A     36  34  93 N8        30.12R WCI  29
CONRAD           N/A     37  37 100 N6        30.13R
$$

MTZ011-013-016-021-045-047-050-051-301300-
NORTH CENTRAL MONTANA

CITY           SKY/WX    TMP DP  RH WIND       PRES   REMARKS
HAVRE          CLOUDY    39  36  89 E9        30.14R
LEWISTOWN      CLOUDY    40  35  83 E6        30.11R
N BAR RANCH    CLOUDY    37  36  93 NE3       30.14R
CHINOOK          N/A     39  39 100 CALM      30.17R
$$

MTZ017>020-022>027-061-062-301300-
NORTHEAST MONTANA

CITY           SKY/WX    TMP DP  RH WIND       PRES   REMARKS
GLASGOW        PTCLDY    43  33  68 E13       30.17R
JORDAN           N/A     37  34  89 CALM      30.14S
SIDNEY         CLOUDY    36  28  75 N6        30.21R WCI  31
WOLF POINT     CLEAR     36  29  75 E6        30.21R WCI  31
PLENTYWOOD       N/A     37  27  65 NE8       30.25R WCI  31
POPLAR           N/A     37  28  70 NE8       30.23R WCI  31
SCOBEY           N/A     39  21  48 E6        30.20R
$$

MTZ028>42-056>058-301300-
SOUTHCENTRAL AND SOUTHEAST MONTANA

CITY           SKY/WX    TMP DP  RH WIND       PRES   REMARKS
BAKER          CLOUDY    37  32  82 CALM      30.14R
BILLINGS       CLOUDY    40  36  86 NE8       30.09R
LIVINGSTON     CLOUDY    39  33  79 E10       30.06R
MILES CITY     CLOUDY    43  37  79 NE8       30.13R
FORSYTH          N/A     43  39  87 CALM      30.12R
LAUREL           N/A     40  29  65 N2        30.06R
ROUNDUP          N/A     40  34  79 CALM      30.02R
$$

REGIONAL REPORTS...DAKOTAS

CITY           SKY/WX    TMP DP  RH WIND       PRES   REMARKS
WILLISTON      CLEAR     37  29  72 N6        30.23R
MINOT          CLEAR     35  25  66 NW5       30.25R
DICKINSON      CLOUDY    32  26  78 NE8       30.14R WCI  25
BEACH            N/A     32  32 100 E6        30.20R WCI  26
CROSBY           N/A     28  28 100 N3        30.30R
WATFORD CITY     N/A     36  28  75 NE3       30.23R
BISMARCK       CLOUDY    40  32  73 NE12      30.16S
GRAND FORKS    CLEAR     38  31  76 E8        30.26R
FARGO          CLEAR     41  31  67 NE9       30.20R
BUFFALO SD       N/A     41  35  79 NE10      30.03S
RAPID CITY     CLOUDY    39  37  92 N13       30.04R WCI  31
$$

REGIONAL REPORTS...WYOMING/IDAHO/WASHINGTON

CITY           SKY/WX    TMP DP  RH WIND       PRES   REMARKS
GILLETTE       CLOUDY    37  34  89 NE10      30.04R WCI  30
SHERIDAN       CLOUDY    39  36  89 CALM      30.08R
BUFFALO WY       N/A    N/A N/A N/A MISG      30.06R
CODY           CLOUDY    37  36  93 NE9       30.04R WCI  31
YELLOWSTONE LA   N/A     28  25  88 CALM      30.02R
IDAHO FALLS    CLEAR     33  31  92 N3        29.95S
SALMON         CLOUDY    39  34  81 CALM      30.04S
BOISE          CLEAR     43  36  76 NW14      29.99S
SPOKANE        CLOUDY    47  44  90 E3        30.13R
$$

REGIONAL REPORTS...ALBERTA

CITY           SKY/WX    TMP DP  RH WIND       PRES   REMARKS
EDMONTON       PTCLDY    41  30  65 S5        30.16R
CALGARY        CLOUDY    43  32  65 CALM      30.15R
LETHBRIDGE     CLOUDY    36  34  93 S14       30.15R WCI  27
MEDICINE HAT   CLOUDY    45  37  76 NE3       30.16R
WATERTON GATE    N/A     28  27  93 SW6         N/A  WCI  22
CARDSTON         N/A     32  30  93 S3          N/A
MILK RIVER       N/A     34  32  93 W1          N/A
ONEFOUR          N/A     41  37  87 E8          N/A
$$

REGIONAL REPORTS...SASKATCHEWAN

CITY           SKY/WX    TMP DP  RH WIND       PRES   REMARKS
SWIFT CURRENT  CLOUDY    39  30  70 SE8       30.21R
REGINA         CLEAR     36  25  64 E9        30.30R WCI  29
SASKATOON      CLEAR     41  25  52 SE10      30.28R
CYPRESS HILLS    N/A     36  32  87 SE5         N/A
VAL MARIE        N/A     41  32  70 NE5         N/A
ROCKGLEN         N/A     34  25  69 E3          N/A
ASSINIBOIA       N/A     45  37  76 S5          N/A
$$




USA.gov is the U.S. government's official web portal to all federal, state and local government web resources and services.